Location: Estes Park
(40.3770°N, 105.5210°W)
Time: 09:05:57
(UTC-06:00)

ISS - Pass Details

Date: 08 October 2017
Orbit: 401 x 408 km, 51.6° (Epoch: 18 October)

Event Time Altitude Azimuth Distance (km) Brightness Sun altitude
Rises 20:58:06 0° 311° (NW) 2,322 1.0 -28.3°
Reaches altitude 10° 21:00:16 10° 319° (NW) 1,461 -0.3 -28.7°
Enters shadow 21:00:41 13° 322° (NW) 1,304 -0.7 -28.8°
